Theta_e
312 309 310 309 309 311 309 309 311 310 311 311 310 310 310 313 312 312 312 313 314 314 314 313 313 319 325 329 330 330 328 328 324 321 325 328 329 334 332 331 330 331 331 330
310 310 309 310 310 311 311 309 310 310 311 310 311 310 308 310 311 313 313 313 314 314 314 314 313 313 320 326 329 329 329 329 327 325 321 320 324 331 331 333 332 330 329 329
309 310 310 310 309 310 310 310 309 311 310 310 309 307 308 308 311 313 314 314 314 314 314 315 314 313 312 316 326 329 330 330 329 327 329 328 327 331 330 331 330 330 327 326
310 310 310 310 310 309 310 309 309 309 307 307 308 306 306 309 308 309 312 313 314 314 314 314 315 314 313 313 317 327 329 331 331 331 330 330 328 324 323 328 327 327 327 327
310 309 310 310 310 309 310 308 309 310 309 308 308 306 305 306 310 309 310 313 313 314 314 314 314 314 314 313 313 312 315 324 329 330 330 330 331 331 329 325 326 327 326 326
310 310 310 309 308 308 307 308 307 306 306 307 306 306 305 307 308 309 310 312 313 312 312 313 313 313 313 313 312 312 312 312 314 325 327 328 330 331 329 327 325 325 326 326
309 309 308 309 308 308 308 306 307 308 307 306 305 307 306 308 307 307 309 312 312 313 312 312 312 312 312 311 311 311 311 311 311 311 316 323 325 329 328 327 325 325 325 325
308 309 308 308 308 308 308 307 309 308 310 308 305 307 307 306 309 311 311 312 312 312 312 312 311 312 312 313 313 313 313 312 310 309 310 312 318 324 326 326 324 324 324 325
308 309 307 308 309 308 308 309 307 307 296 305 306 305 306 307 307 309 308 310 311 311 311 311 312 313 313 313 314 315 314 312 311 310 309 310 316 321 324 324 323 324 324 324
308 310 309 308 309 309 308 307 308 306 303 305 305 306 306 310 307 306 307 308 311 311 311 311 311 312 313 312 313 313 314 314 313 312 314 315 316 321 322 323 323 323 323 323
307 308 309 308 308 308 308 308 307 306 306 307 305 305 303 307 307 306 306 309 309 310 310 310 311 311 311 311 312 312 313 314 314 313 314 317 321 321 321 321 321 321 322 321
308 308 307 308 307 306 307 307 306 306 305 304 307 307 307 306 309 309 309 310 310 310 310 310 310 310 310 311 311 311 312 313 314 315 314 314 315 315 318 319 318 319 319 319
307 307 301 308 308 308 308 308 308 306 304 307 305 307 305 307 308 311 310 310 310 310 310 310 310 310 310 310 310 310 311 311 314 315 316 316 316 317 317 317 317 318 317 318
309 307 306 307 307 308 308 308 308 307 307 307 306 307 308 309 309 310 311 311 311 311 311 310 309 309 309 309 309 309 309 310 311 313 315 315 316 316 316 316 316 314 312 309
309 303 308 306 307 308 307 307 308 308 308 308 308 307 308 305 307 309 310 311 311 311 310 310 309 309 309 308 308 308 308 309 309 309 310 310 310 308 308 307 307 307 305 303
308 303 306 304 308 308 308 307 307 308 308 307 307 307 305 308 307 309 309 310 310 310 310 309 309 309 308 308 308 308 307 308 307 307 307 307 306 305 304 303 301 299 297 296
305 303 302 307 309 309 305 305 308 308 307 308 308 309 308 307 307 309 310 310 310 311 311 310 310 309 308 307 307 307 307 306 305 305 305 305 302 300 297 296 294 294 293 293
304 302 302 306 300 305 307 307 307 308 308 307 307 309 308 307 308 309 309 309 310 310 311 311 310 309 308 307 306 306 305 305 304 302 301 299 296 294 294 293 293 293 292 292
305 304 307 307 294 304 308 308 308 307 308 306 307 306 305 308 309 309 308 308 308 309 310 310 310 309 308 306 305 304 303 302 300 299 297 295 293 292 292 292 292 292 292 292
306 304 305 298 302 306 305 306 307 307 308 304 305 304 304 306 305 305 307 308 309 310 310 310 309 309 307 306 304 302 301 298 296 294 293 292 291 291 291 292 293 292 291 291
309 309 309 307 300 302 303 305 307 308 307 303 304 304 304 302 304 304 305 307 308 308 309 309 308 307 305 304 302 301 298 295 293 291 291 290 290 291 291 291 293 294 295 294
309 309 310 309 309 308 304 305 307 304 304 305 305 306 306 307 306 305 304 305 306 307 307 307 306 304 302 301 300 298 295 292 290 289 290 290 291 295 297 298 296 293 290 289
304 303 305 308 306 304 304 306 307 307 307 305 306 306 306 307 307 306 306 304 304 305 305 304 302 301 299 298 297 295 291 289 289 289 292 296 297 297 295 293 292 289 289 288
299 302 301 301 302 305 305 306 305 304 304 304 305 305 306 306 306 305 305 304 303 303 302 301 299 298 298 296 293 289 289 289 290 295 297 298 297 292 289 291 290 288 287 287
300 301 298 297 302 303 303 303 302 303 303 304 303 303 303 304 305 304 304 303 301 300 299 298 297 296 295 292 288 288 290 294 297 297 296 290 290 294 292 288 287 287 287 287
298 300 303 301 301 302 301 300 300 299 299 300 300 300 300 301 302 302 302 302 300 299 297 295 294 293 292 288 289 292 296 297 297 292 289 293 293 287 287 286 286 286 286 286
Wind_Speed
7 4 7 9 8 4 7 6 6 0 2 4 6 7 9 15 11 15 17 15 17 17 18 20 18 27 25 26 27 26 24 24 23 28 30 30 31 32 31 29 28 26 24 22
3 5 8 8 6 4 3 6 4 2 0 2 3 9 9 11 14 21 23 20 20 18 18 20 20 21 29 29 28 27 26 25 25 25 26 29 30 31 31 33 32 29 27 24
6 7 10 9 7 8 3 6 5 5 2 3 2 7 7 9 23 26 28 25 24 23 22 23 23 23 24 28 31 29 28 28 27 26 25 26 27 29 29 32 34 33 29 28
6 7 11 7 5 6 5 4 6 9 4 3 2 5 6 5 8 9 29 30 28 26 22 25 28 24 25 26 30 33 31 29 30 30 30 31 31 30 31 31 31 32 31 31
7 8 8 6 8 7 5 6 7 4 4 2 2 1 7 5 4 7 18 24 28 23 23 17 28 28 27 27 28 30 33 35 33 34 34 33 33 31 27 24 27 29 30 31
3 1 2 6 4 7 8 8 9 6 4 2 6 6 5 5 8 6 7 14 19 18 22 22 23 24 25 26 28 29 31 33 36 37 36 34 32 29 28 25 27 26 25 26
3 3 2 4 9 6 7 6 3 2 2 6 3 4 7 6 8 8 9 8 13 18 18 18 19 20 21 22 24 25 27 29 33 37 40 38 32 25 27 27 26 27 26 22
6 2 6 2 7 9 9 8 6 7 5 4 3 7 6 9 11 12 9 12 16 17 15 13 14 13 14 14 14 14 15 17 20 25 32 35 34 25 25 26 22 25 25 23
5 2 2 3 2 10 5 5 5 7 3 3 5 7 8 9 8 9 7 10 16 15 13 12 13 12 11 11 10 9 8 10 12 15 21 28 30 27 20 22 20 22 22 21
4 5 2 1 2 2 5 7 2 3 4 3 5 6 7 4 11 5 7 17 17 15 15 14 15 15 15 13 11 9 9 10 12 14 16 19 22 23 19 19 18 18 20 19
4 5 1 3 7 7 3 3 2 5 5 5 1 7 7 10 8 10 15 18 19 19 17 16 16 16 14 14 13 13 13 12 12 14 17 19 20 19 19 17 18 19 19 18
5 6 4 8 3 5 3 5 6 5 4 3 4 10 2 5 3 6 2 7 14 16 16 16 15 14 14 14 14 14 13 12 13 15 15 16 17 17 16 17 16 16 16 17
9 3 3 3 3 3 4 4 3 4 3 8 6 10 4 3 5 6 2 4 8 11 14 17 17 17 17 17 17 15 15 14 13 12 13 14 15 14 14 14 14 13 12 12
20 4 9 11 5 7 7 8 11 6 4 6 9 13 2 3 3 1 4 6 8 11 14 16 19 20 20 20 17 16 15 14 14 14 13 13 15 15 16 15 14 12 11 10
7 6 5 4 6 6 5 9 13 16 15 8 16 16 17 7 6 13 12 11 14 16 18 20 21 22 22 21 20 19 18 17 15 15 15 15 16 15 15 14 14 13 12 10
1 1 4 3 6 6 3 8 11 16 8 13 4 19 8 2 3 8 15 16 20 23 25 25 23 24 25 25 23 22 19 19 18 18 17 17 16 16 16 15 15 13 11 9
4 5 4 3 1 6 8 9 10 6 7 10 14 27 2 3 10 19 20 23 27 30 29 29 29 29 28 27 24 23 22 21 20 19 19 18 18 17 16 14 13 12 10 8
5 5 3 3 3 3 6 4 12 17 8 8 13 16 12 8 17 19 20 24 28 31 33 34 32 30 30 30 27 26 25 24 23 22 21 20 18 17 16 14 12 10 7 5
4 5 3 5 3 4 5 5 6 8 8 4 12 6 6 12 14 16 5 10 19 26 29 33 34 32 31 31 30 28 27 26 25 24 22 20 18 16 15 12 9 6 3 2
4 5 4 3 6 9 6 3 3 6 5 4 4 3 4 6 1 2 19 19 21 18 23 30 30 31 32 33 31 29 27 26 25 23 21 20 18 16 13 10 7 4 3 5
5 2 4 4 3 7 7 6 5 6 5 12 9 7 7 3 5 13 14 14 15 13 17 23 24 26 30 31 30 29 28 28 25 23 21 19 17 13 11 8 6 7 8 9
7 7 4 3 3 9 8 4 9 7 14 15 10 5 3 3 5 9 10 10 10 9 13 18 22 25 28 29 28 29 29 28 25 23 20 18 13 8 3 5 7 7 6 6
3 6 6 9 6 2 13 6 9 10 10 9 7 6 6 7 9 13 14 11 9 11 15 17 21 23 25 26 27 30 28 25 23 22 17 12 6 2 3 1 6 7 8 7
3 3 3 4 4 5 11 4 3 1 3 6 8 9 9 11 13 15 15 14 13 13 17 17 19 22 25 27 28 25 26 27 23 16 10 6 2 2 5 6 10 8 7 7
4 9 6 3 1 7 3 3 5 3 1 5 9 13 14 15 17 18 19 19 16 15 17 19 20 24 28 29 30 29 28 22 16 13 6 9 9 8 13 12 8 7 7 8
6 6 5 3 5 7 9 6 1 2 5 5 6 8 10 14 17 19 22 21 18 17 18 21 23 27 29 30 29 26 20 18 16 13 16 15 16 17 12 8 7 7 8 9
Wind_Direction
193 126 177 183 185 182 152 167 142 87 262 144 209 257 256 261 243 245 244 242 237 236 235 243 237 219 222 228 232 238 236 236 232 225 223 226 225 225 227 231 232 230 233 235
76 198 203 178 197 163 133 154 131 90 287 155 200 260 257 248 240 240 246 240 240 241 241 236 234 222 218 223 229 236 241 242 242 241 240 236 232 232 231 232 233 232 235 237
147 213 196 170 169 155 176 162 170 150 136 5 19 294 253 252 242 241 239 240 239 242 244 233 227 227 223 222 223 231 238 247 251 253 248 244 236 236 233 233 235 234 239 239
176 230 184 150 163 131 144 137 127 122 103 209 129 271 294 243 247 216 240 238 238 240 241 238 219 220 216 220 220 222 227 237 246 251 252 250 249 245 242 239 242 241 240 243
207 156 153 155 170 143 189 138 132 119 96 84 260 49 267 278 247 244 232 233 239 235 230 219 207 210 217 222 226 226 227 227 233 240 247 252 253 257 258 248 246 247 244 245
129 108 99 157 80 121 147 84 45 46 75 299 231 178 267 217 215 239 223 238 239 228 226 218 208 215 222 230 236 240 241 235 230 234 237 244 247 249 248 246 244 249 249 249
80 54 350 118 83 6 103 89 44 27 348 225 7 239 243 255 242 199 193 202 188 195 205 215 227 236 243 246 248 248 246 242 236 231 234 237 244 244 243 247 247 249 252 250
146 187 170 191 153 174 166 163 158 181 196 228 10 238 254 245 243 243 224 211 198 200 213 227 235 239 240 246 250 250 245 241 234 228 228 232 238 238 238 247 245 247 249 251
131 173 54 82 109 147 219 197 166 106 34 71 231 293 287 258 248 221 197 187 191 204 213 221 227 232 236 237 237 235 233 229 226 222 224 225 231 235 231 241 241 240 243 245
158 117 9 141 141 66 163 154 102 10 122 252 279 271 237 277 251 251 217 208 202 210 216 219 223 222 222 225 234 235 227 221 220 218 218 221 222 225 224 227 233 236 239 241
143 103 268 136 212 157 126 178 124 122 153 169 216 260 224 212 213 234 245 237 220 225 229 221 216 220 225 228 230 234 231 222 221 222 218 215 205 207 214 220 225 229 232 237
173 119 164 197 255 206 138 184 153 163 234 214 165 254 244 137 129 181 226 222 221 225 224 226 231 233 235 235 236 237 239 233 225 217 211 208 213 212 208 209 216 222 229 234
174 181 77 57 334 354 189 171 188 122 79 212 146 256 360 97 71 56 122 186 209 215 227 237 241 242 240 235 233 233 232 229 222 210 201 192 187 186 188 194 200 203 210 214
162 146 180 192 191 149 178 192 202 172 190 196 232 261 256 75 56 125 184 218 225 242 250 247 237 234 233 234 232 230 225 219 214 203 197 192 187 187 190 189 185 185 188 190
146 163 125 135 118 125 169 187 196 207 211 188 251 248 256 217 254 264 254 225 228 241 249 252 242 236 231 228 224 220 217 211 204 196 189 185 181 176 172 169 167 166 168 171
28 96 99 343 143 149 201 204 204 218 205 243 276 270 104 171 226 291 284 247 239 249 254 252 244 238 232 228 223 219 212 205 198 193 185 179 173 171 170 169 167 164 167 166
104 122 91 214 124 73 288 184 198 192 194 212 226 247 57 250 239 263 270 265 261 265 265 259 252 246 236 229 223 216 210 204 196 192 185 180 178 176 173 171 167 163 164 163
124 99 92 165 56 168 262 243 189 206 196 211 253 263 275 303 303 293 282 287 281 277 270 263 256 247 239 231 222 216 209 202 197 192 187 182 178 178 174 172 166 159 154 152
72 111 104 148 190 298 272 202 166 167 230 264 254 308 336 314 298 297 359 309 296 287 282 274 262 252 239 229 220 212 205 200 196 193 188 182 179 179 172 167 156 147 131 62
52 73 119 127 153 206 237 234 202 95 257 212 131 96 355 4 339 281 327 314 285 295 282 266 255 247 237 227 217 211 204 198 194 189 186 181 177 174 168 158 139 109 52 19
137 112 157 171 212 284 248 222 133 128 232 160 149 126 96 127 240 310 336 329 320 297 272 254 244 235 226 218 212 206 201 195 192 187 180 174 169 163 149 122 76 30 358 327
161 150 172 137 208 257 191 121 168 160 139 152 165 182 205 297 328 326 338 329 313 279 239 232 231 219 211 210 210 203 197 191 187 180 172 162 156 149 127 18 4 335 285 281
216 176 174 187 205 246 169 96 130 149 152 196 222 233 261 283 308 316 317 317 293 256 239 228 223 210 204 205 205 199 192 185 177 167 162 159 141 71 33 3 254 259 271 283
277 176 148 98 208 173 168 147 116 164 258 250 238 254 264 279 294 300 299 292 279 255 243 232 218 212 204 199 194 194 186 176 170 170 172 189 287 203 211 261 255 254 276 294
194 141 155 276 305 99 86 131 105 95 284 271 265 265 275 278 281 283 283 278 264 251 238 228 219 211 202 195 187 182 176 173 177 181 195 175 190 217 231 230 243 264 285 298
192 168 171 205 153 121 158 134 107 318 317 314 312 308 301 286 282 276 271 269 264 255 240 225 214 206 197 187 180 178 182 195 214 196 187 203 216 215 217 233 251 267 287 305